This is the latest recevied weather packets stored in our database for station/object W0AKO. If no packets are shown the sender has not sent any weather packets the latest 10 day(s).
| Time | Temp. | Humidity | Pressure | Rain* | Wind** | Luminosity | Snow |
|---|---|---|---|---|---|---|---|
| 1778111957 | 27.78° C | 10% | 1016.3 hPa | 0 mm | - | 255 W/m² | - |
| 1778111655 | 27.22° C | 10% | 1016.3 hPa | 0 mm | - | 265 W/m² | - |
| 1778111350 | 27.78° C | 10% | 1016.2 hPa | 0 mm | - | 290 W/m² | - |
| 1778111049 | 27.78° C | 10% | 1016.2 hPa | 0 mm | - | 302 W/m² | - |
| 1778110746 | 27.78° C | 10% | 1016.2 hPa | 0 mm | - | 363 W/m² | - |
| 1778110441 | 27.78° C | 10% | 1015.8 hPa | 0 mm | - | 382 W/m² | - |
| 1778110138 | 28.33° C | 10% | 1015.8 hPa | 0 mm | - | 391 W/m² | - |
| 1778109834 | 28.33° C | 10% | 1016 hPa | 0 mm | - | 395 W/m² | - |
| 1778109531 | 28.33° C | 10% | 1015.9 hPa | 0 mm | - | 412 W/m² | - |
| 1778109229 | 27.78° C | 10% | 1016 hPa | 0 mm | - | 434 W/m² | - |
| 1778108926 | 28.33° C | 10% | 1016 hPa | 0 mm | - | 422 W/m² | - |
| 1778108622 | 27.78° C | 10% | 1015.8 hPa | 0 mm | - | 486 W/m² | - |
| 1778108318 | 27.22° C | 10% | 1015.8 hPa | 0 mm | - | 528 W/m² | - |
| 1778108016 | 28.33° C | 10% | 1015.9 hPa | 0 mm | - | 530 W/m² | - |
| 1778107713 | 27.78° C | 10% | 1015.9 hPa | 0 mm | - | 552 W/m² | - |
| 1778107410 | 27.78° C | 10% | 1015.9 hPa | 0 mm | - | 573 W/m² | - |
| 1778107106 | 27.78° C | 10% | 1016 hPa | 0 mm | - | 269 W/m² | - |
| 1778106801 | 27.78° C | 10% | 1016.2 hPa | 0 mm | - | 505 W/m² | - |
| 1778106499 | 27.78° C | 10% | 1016.3 hPa | 0 mm | - | 486 W/m² | - |
| 1778106194 | 27.78° C | 10% | 1016.2 hPa | 0 mm | - | 260 W/m² | - |
| 1778105893 | 28.33° C | 10% | 1016.2 hPa | 0 mm | - | 478 W/m² | - |
| 1778105590 | 27.78° C | 10% | 1016.4 hPa | 0 mm | - | 524 W/m² | - |
| 1778105288 | 28.33° C | 10% | 1015.6 hPa | 0 mm | - | 566 W/m² | - |
| 1778104982 | 27.78° C | 10% | 1016.4 hPa | 0 mm | - | 555 W/m² | - |
| 1778104679 | 28.33° C | 10% | 1016.4 hPa | 0 mm | - | 538 W/m² | - |
* Rain latest hour (hover to see other rain measurements)
** Current wind speed in m/s (hover to see current wind gust speed)